Time,TemperatureF,DewpointF,PressureIn,WindDirection,WindDirectionDegrees,WindSpeedMPH,WindSpeedGustMPH,Humidity,HourlyPrecipIn,Conditions,Clouds,dailyrainin,SoftwareType,DateUTC
2013-08-17 00:01:00,58.1,54.9,30.10,WSW,240,0.0,0.0,89,0.00,,,0.00,WUHU216DAVISVP2,2013-08-17 05:01:00,
2013-08-17 00:06:00,57.8,54.6,30.10,WSW,240,0.0,0.0,89,0.00,,,0.00,WUHU216DAVISVP2,2013-08-17 05:06:00,
2013-08-17 00:11:00,57.6,54.7,30.10,WSW,240,0.0,0.0,90,0.00,,,0.00,WUHU216DAVISVP2,2013-08-17 05:11:00,
2013-08-17 00:16:00,57.5,54.6,30.10,WSW,240,0.0,0.0,90,0.00,,,0.00,WUHU216DAVISVP2,2013-08-17 05:16:00,
2013-08-17 00:21:00,57.3,54.4,30.10,WSW,240,0.0,0.0,90,0.00,,,0.00,WUHU216DAVISVP2,2013-08-17 05:21:00,
2013-08-17 00:26:00,57.2,54.6,30.10,WSW,240,0.0,0.0,91,0.00,,,0.00,WUHU216DAVISVP2,2013-08-17 05:26:00,
2013-08-17 00:31:00,57.0,54.4,30.10,WSW,240,0.0,0.0,91,0.00,,,0.00,WUHU216DAVISVP2,2013-08-17 05:31:00,
2013-08-17 00:36:00,56.9,54.3,30.11,WSW,240,0.0,0.0,91,0.00,,,0.00,WUHU216DAVISVP2,2013-08-17 05:36:00,
2013-08-17 00:41:00,56.8,54.2,30.11,WSW,240,0.0,0.0,91,0.00,,,0.00,WUHU216DAVISVP2,2013-08-17 05:41:00,
2013-08-17 00:46:00,56.7,54.1,30.11,WSW,240,0.0,0.0,91,0.00,,,0.00,WUHU216DAVISVP2,2013-08-17 05:46:00,
2013-08-17 00:51:00,56.5,53.9,30.11,WSW,240,0.0,0.0,91,0.00,,,0.00,WUHU216DAVISVP2,2013-08-17 05:51:00,
2013-08-17 00:56:00,56.4,53.8,30.11,WSW,240,0.0,0.0,91,0.00,,,0.00,WUHU216DAVISVP2,2013-08-17 05:56:00,
2013-08-17 01:01:00,56.3,54.0,30.11,WSW,240,0.0,0.0,92,0.00,,,0.00,WUHU216DAVISVP2,2013-08-17 06:01:00,
2013-08-17 01:06:00,56.1,53.8,30.11,WSW,240,0.0,0.0,92,0.00,,,0.00,WUHU216DAVISVP2,2013-08-17 06:06:00,
2013-08-17 01:11:00,56.1,53.8,30.11,WSW,240,0.0,0.0,92,0.00,,,0.00,WUHU216DAVISVP2,2013-08-17 06:11:00,
2013-08-17 01:16:00,56.0,53.7,30.10,WSW,240,0.0,0.0,92,0.00,,,0.00,WUHU216DAVISVP2,2013-08-17 06:16:00,
2013-08-17 01:21:00,55.9,53.6,30.10,WSW,240,0.0,0.0,92,0.00,,,0.00,WUHU216DAVISVP2,2013-08-17 06:21:00,
2013-08-17 01:26:00,55.8,53.8,30.10,WSW,240,0.0,0.0,93,0.00,,,0.00,WUHU216DAVISVP2,2013-08-17 06:26:00,
2013-08-17 01:31:00,55.8,53.8,30.10,WSW,240,0.0,0.0,93,0.00,,,0.00,WUHU216DAVISVP2,2013-08-17 06:31:00,
2013-08-17 01:36:00,55.7,53.7,30.10,WSW,240,0.0,0.0,93,0.00,,,0.00,WUHU216DAVISVP2,2013-08-17 06:36:00,
2013-08-17 01:41:00,55.6,53.6,30.10,WSW,240,0.0,0.0,93,0.00,,,0.00,WUHU216DAVISVP2,2013-08-17 06:41:00,
2013-08-17 01:46:00,55.7,53.7,30.10,WSW,240,0.0,0.0,93,0.00,,,0.00,WUHU216DAVISVP2,2013-08-17 06:46:00,
2013-08-17 01:51:00,55.8,53.8,30.10,WSW,240,0.0,0.0,93,0.00,,,0.00,WUHU216DAVISVP2,2013-08-17 06:51:00,
2013-08-17 01:56:00,55.7,53.7,30.10,WSW,240,0.0,0.0,93,0.00,,,0.00,WUHU216DAVISVP2,2013-08-17 06:56:00,
2013-08-17 02:01:00,55.8,53.7,30.10,WSW,240,0.0,0.0,93,0.00,,,0.00,WUHU216DAVISVP2,2013-08-17 07:01:00,
2013-08-17 02:06:00,55.8,53.7,30.10,WSW,240,0.0,0.0,93,0.00,,,0.00,WUHU216DAVISVP2,2013-08-17 07:06:00,
2013-08-17 02:11:00,55.8,53.7,30.10,WSW,240,0.0,0.0,93,0.00,,,0.00,WUHU216DAVISVP2,2013-08-17 07:11:00,
2013-08-17 02:16:00,55.8,53.7,30.10,WSW,240,0.0,0.0,93,0.00,,,0.00,WUHU216DAVISVP2,2013-08-17 07:16:00,
2013-08-17 02:21:00,55.9,53.9,30.10,WSW,240,0.0,0.0,93,0.00,,,0.00,WUHU216DAVISVP2,2013-08-17 07:21:00,
2013-08-17 02:26:00,55.9,53.9,30.10,WSW,240,0.0,0.0,93,0.00,,,0.00,WUHU216DAVISVP2,2013-08-17 07:26:00,
2013-08-17 02:31:00,55.8,53.8,30.10,WSW,240,0.0,0.0,93,0.00,,,0.00,WUHU216DAVISVP2,2013-08-17 07:31:00,
2013-08-17 02:36:00,55.8,53.8,30.10,WSW,240,0.0,0.0,93,0.00,,,0.00,WUHU216DAVISVP2,2013-08-17 07:36:00,
2013-08-17 02:41:00,55.8,53.8,30.10,WSW,240,0.0,0.0,93,0.00,,,0.00,WUHU216DAVISVP2,2013-08-17 07:41:00,
2013-08-17 02:46:00,55.9,53.8,30.10,WSW,240,0.0,0.0,93,0.00,,,0.00,WUHU216DAVISVP2,2013-08-17 07:46:00,
2013-08-17 02:51:00,55.8,53.7,30.10,WSW,240,0.0,0.0,93,0.00,,,0.00,WUHU216DAVISVP2,2013-08-17 07:51:00,
2013-08-17 02:56:00,55.7,53.7,30.10,WSW,240,0.0,0.0,93,0.00,,,0.00,WUHU216DAVISVP2,2013-08-17 07:56:00,
2013-08-17 03:01:00,55.7,53.7,30.10,WSW,240,0.0,0.0,93,0.00,,,0.00,WUHU216DAVISVP2,2013-08-17 08:01:00,
2013-08-17 03:06:00,55.8,53.8,30.10,WSW,240,0.0,0.0,93,0.00,,,0.00,WUHU216DAVISVP2,2013-08-17 08:06:00,
2013-08-17 03:11:00,55.8,53.8,30.10,WSW,240,0.0,0.0,93,0.00,,,0.00,WUHU216DAVISVP2,2013-08-17 08:11:00,
2013-08-17 03:16:00,55.9,53.8,30.10,WSW,240,0.0,0.0,93,0.00,,,0.00,WUHU216DAVISVP2,2013-08-17 08:16:00,
2013-08-17 03:21:00,55.8,53.4,30.10,WSW,240,0.0,0.0,92,0.00,,,0.00,WUHU216DAVISVP2,2013-08-17 08:21:00,
2013-08-17 03:26:00,55.7,53.4,30.10,WSW,240,0.0,0.0,92,0.00,,,0.00,WUHU216DAVISVP2,2013-08-17 08:26:00,
2013-08-17 03:31:00,55.7,53.7,30.10,WSW,240,0.0,0.0,93,0.00,,,0.00,WUHU216DAVISVP2,2013-08-17 08:31:00,
2013-08-17 03:36:00,55.6,53.6,30.10,WSW,240,0.0,0.0,93,0.00,,,0.00,WUHU216DAVISVP2,2013-08-17 08:36:00,
2013-08-17 03:41:00,55.7,53.6,30.10,WSW,240,0.0,0.0,93,0.00,,,0.00,WUHU216DAVISVP2,2013-08-17 08:41:00,
2013-08-17 03:46:00,55.6,53.5,30.10,WSW,240,0.0,0.0,93,0.00,,,0.00,WUHU216DAVISVP2,2013-08-17 08:46:00,
2013-08-17 03:51:00,55.6,53.6,30.10,WSW,240,0.0,0.0,93,0.00,,,0.00,WUHU216DAVISVP2,2013-08-17 08:51:00,
2013-08-17 03:56:00,55.5,53.5,30.10,WSW,240,0.0,0.0,93,0.00,,,0.00,WUHU216DAVISVP2,2013-08-17 08:56:00,
2013-08-17 04:01:00,55.4,53.4,30.10,WSW,240,0.0,0.0,93,0.00,,,0.00,WUHU216DAVISVP2,2013-08-17 09:01:00,
2013-08-17 04:06:00,55.5,53.4,30.10,WSW,240,0.0,0.0,93,0.00,,,0.00,WUHU216DAVISVP2,2013-08-17 09:06:00,
2013-08-17 04:11:00,55.4,53.4,30.10,WSW,240,0.0,0.0,93,0.00,,,0.00,WUHU216DAVISVP2,2013-08-17 09:11:00,
2013-08-17 04:16:00,55.2,53.2,30.10,WSW,240,0.0,0.0,93,0.00,,,0.00,WUHU216DAVISVP2,2013-08-17 09:16:00,
2013-08-17 04:21:00,55.0,53.0,30.10,WSW,240,0.0,0.0,93,0.00,,,0.00,WUHU216DAVISVP2,2013-08-17 09:21:00,
2013-08-17 04:26:00,55.1,53.0,30.10,WSW,240,0.0,0.0,93,0.00,,,0.00,WUHU216DAVISVP2,2013-08-17 09:26:00,
2013-08-17 04:31:00,55.0,53.0,30.10,WSW,240,0.0,0.0,93,0.00,,,0.00,WUHU216DAVISVP2,2013-08-17 09:31:00,
2013-08-17 04:36:00,54.9,52.9,30.10,WSW,240,0.0,0.0,93,0.00,,,0.00,WUHU216DAVISVP2,2013-08-17 09:36:00,
2013-08-17 04:41:00,54.8,52.8,30.10,WSW,240,0.0,0.0,93,0.00,,,0.00,WUHU216DAVISVP2,2013-08-17 09:41:00,
2013-08-17 04:46:00,54.9,52.8,30.10,WSW,240,0.0,0.0,93,0.00,,,0.00,WUHU216DAVISVP2,2013-08-17 09:46:00,
2013-08-17 04:51:00,54.8,53.1,30.10,WSW,240,0.0,0.0,94,0.00,,,0.00,WUHU216DAVISVP2,2013-08-17 09:51:00,
2013-08-17 04:56:00,54.8,53.1,30.10,WSW,240,0.0,0.0,94,0.00,,,0.00,WUHU216DAVISVP2,2013-08-17 09:56:00,
2013-08-17 05:01:00,55.0,53.2,30.10,WSW,240,0.0,0.0,94,0.00,,,0.00,WUHU216DAVISVP2,2013-08-17 10:01:00,
2013-08-17 05:06:00,54.9,53.2,30.10,WSW,240,0.0,0.0,94,0.00,,,0.00,WUHU216DAVISVP2,2013-08-17 10:06:00,
2013-08-17 05:11:00,54.9,53.2,30.10,WSW,240,0.0,0.0,94,0.00,,,0.00,WUHU216DAVISVP2,2013-08-17 10:11:00,
2013-08-17 05:16:00,54.9,53.2,30.10,WSW,240,0.0,0.0,94,0.00,,,0.00,WUHU216DAVISVP2,2013-08-17 10:16:00,
2013-08-17 05:21:00,55.1,53.3,30.10,WSW,240,0.0,0.0,94,0.00,,,0.00,WUHU216DAVISVP2,2013-08-17 10:21:00,
2013-08-17 05:26:00,55.1,53.4,30.10,WSW,240,0.0,0.0,94,0.00,,,0.00,WUHU216DAVISVP2,2013-08-17 10:26:00,
2013-08-17 05:31:00,55.0,53.3,30.10,WSW,240,0.0,0.0,94,0.00,,,0.00,WUHU216DAVISVP2,2013-08-17 10:31:00,
2013-08-17 05:36:00,55.2,53.4,30.10,WSW,240,0.0,0.0,94,0.00,,,0.00,WUHU216DAVISVP2,2013-08-17 10:36:00,
2013-08-17 05:41:00,55.2,53.5,30.10,WSW,240,0.0,0.0,94,0.00,,,0.00,WUHU216DAVISVP2,2013-08-17 10:41:00,
2013-08-17 05:46:00,55.2,53.5,30.10,WSW,240,0.0,0.0,94,0.00,,,0.00,WUHU216DAVISVP2,2013-08-17 10:46:00,
2013-08-17 05:51:00,55.3,53.5,30.10,WSW,240,0.0,0.0,94,0.00,,,0.00,WUHU216DAVISVP2,2013-08-17 10:51:00,
2013-08-17 05:56:00,55.3,53.6,30.09,WSW,240,0.0,0.0,94,0.00,,,0.00,WUHU216DAVISVP2,2013-08-17 10:56:00,
2013-08-17 06:01:00,55.3,53.6,30.09,WSW,240,0.0,0.0,94,0.00,,,0.00,WUHU216DAVISVP2,2013-08-17 11:01:00,
2013-08-17 06:06:00,55.4,53.6,30.09,WSW,240,0.0,0.0,94,0.00,,,0.00,WUHU216DAVISVP2,2013-08-17 11:06:00,
2013-08-17 06:11:00,55.4,53.7,30.09,WSW,240,0.0,0.0,94,0.00,,,0.00,WUHU216DAVISVP2,2013-08-17 11:11:00,
2013-08-17 06:16:00,55.5,53.8,30.09,WSW,240,0.0,0.0,94,0.00,,,0.00,WUHU216DAVISVP2,2013-08-17 11:16:00,
2013-08-17 06:21:00,55.5,53.7,30.10,WSW,240,0.0,0.0,94,0.00,,,0.00,WUHU216DAVISVP2,2013-08-17 11:21:00,
2013-08-17 06:26:00,55.5,53.8,30.09,WSW,240,0.0,0.0,94,0.00,,,0.00,WUHU216DAVISVP2,2013-08-17 11:26:00,
2013-08-17 06:31:00,55.5,53.8,30.10,WSW,240,0.0,0.0,94,0.00,,,0.00,WUHU216DAVISVP2,2013-08-17 11:31:00,
2013-08-17 06:36:00,55.6,53.8,30.10,WSW,240,0.0,0.0,94,0.00,,,0.00,WUHU216DAVISVP2,2013-08-17 11:36:00,
2013-08-17 06:41:00,55.6,53.9,30.10,WSW,240,0.0,0.0,94,0.00,,,0.00,WUHU216DAVISVP2,2013-08-17 11:41:00,
2013-08-17 06:46:00,55.7,53.9,30.10,WSW,240,0.0,0.0,94,0.00,,,0.00,WUHU216DAVISVP2,2013-08-17 11:46:00,
2013-08-17 06:51:00,55.7,53.9,30.10,WSW,240,0.0,0.0,94,0.00,,,0.00,WUHU216DAVISVP2,2013-08-17 11:51:00,
2013-08-17 06:56:00,55.7,54.0,30.10,WSW,240,0.0,0.0,94,0.00,,,0.00,WUHU216DAVISVP2,2013-08-17 11:56:00,
2013-08-17 07:01:00,55.9,54.1,30.10,WSW,240,0.0,0.0,94,0.00,,,0.00,WUHU216DAVISVP2,2013-08-17 12:01:00,
2013-08-17 07:06:00,55.8,54.1,30.10,WSW,240,0.0,0.0,94,0.00,,,0.00,WUHU216DAVISVP2,2013-08-17 12:06:00,
2013-08-17 07:11:00,55.8,54.1,30.10,WSW,240,0.0,0.0,94,0.00,,,0.00,WUHU216DAVISVP2,2013-08-17 12:11:00,
2013-08-17 07:16:00,55.9,54.1,30.11,WSW,240,0.0,0.0,94,0.00,,,0.00,WUHU216DAVISVP2,2013-08-17 12:16:00,
2013-08-17 07:21:00,56.0,54.3,30.11,WSW,240,0.0,0.0,94,0.00,,,0.00,WUHU216DAVISVP2,2013-08-17 12:21:00,
2013-08-17 07:26:00,56.0,54.3,30.11,WSW,240,0.0,0.0,94,0.00,,,0.00,WUHU216DAVISVP2,2013-08-17 12:26:00,
2013-08-17 07:31:00,56.4,54.6,30.11,WSW,240,0.0,0.0,94,0.00,,,0.00,WUHU216DAVISVP2,2013-08-17 12:31:00,
2013-08-17 07:36:00,56.9,55.5,30.11,WSW,240,0.0,0.0,95,0.00,,,0.00,WUHU216DAVISVP2,2013-08-17 12:36:00,
2013-08-17 07:41:00,57.5,55.7,30.11,WSW,240,0.0,0.0,94,0.00,,,0.00,WUHU216DAVISVP2,2013-08-17 12:41:00,
2013-08-17 07:46:00,57.9,55.8,30.11,WSW,240,0.0,0.0,93,0.00,,,0.00,WUHU216DAVISVP2,2013-08-17 12:46:00,
2013-08-17 07:51:00,58.3,56.3,30.11,WSW,240,0.0,0.0,93,0.00,,,0.00,WUHU216DAVISVP2,2013-08-17 12:51:00,
2013-08-17 07:56:00,59.0,56.6,30.11,WSW,240,0.0,0.0,92,0.00,,,0.00,WUHU216DAVISVP2,2013-08-17 12:56:00,
2013-08-17 08:01:00,59.7,57.0,30.11,WSW,240,0.0,2.0,91,0.00,,,0.00,WUHU216DAVISVP2,2013-08-17 13:01:00,
2013-08-17 08:06:00,60.0,57.0,30.11,WSW,240,0.0,3.0,90,0.00,,,0.00,WUHU216DAVISVP2,2013-08-17 13:06:00,
2013-08-17 08:11:00,60.4,57.1,30.11,WSW,240,0.0,3.0,89,0.00,,,0.00,WUHU216DAVISVP2,2013-08-17 13:11:00,
2013-08-17 08:16:00,60.8,57.5,30.11,WSW,240,0.0,3.0,89,0.00,,,0.00,WUHU216DAVISVP2,2013-08-17 13:16:00,
2013-08-17 08:21:00,61.3,57.7,30.12,WSW,240,0.0,3.0,88,0.00,,,0.00,WUHU216DAVISVP2,2013-08-17 13:21:00,
2013-08-17 08:26:00,61.9,57.7,30.12,WSW,240,3.0,4.0,86,0.00,,,0.00,WUHU216DAVISVP2,2013-08-17 13:26:00,
2013-08-17 08:31:00,62.2,57.7,30.12,WSW,240,0.0,4.0,85,0.00,,,0.00,WUHU216DAVISVP2,2013-08-17 13:31:00,
2013-08-17 08:36:00,62.7,57.8,30.12,WSW,240,3.0,6.0,84,0.00,,,0.00,WUHU216DAVISVP2,2013-08-17 13:36:00,
2013-08-17 08:41:00,62.9,57.7,30.12,WSW,240,2.0,6.0,83,0.00,,,0.00,WUHU216DAVISVP2,2013-08-17 13:41:00,
2013-08-17 08:46:00,63.3,57.7,30.12,WSW,240,0.0,6.0,82,0.00,,,0.00,WUHU216DAVISVP2,2013-08-17 13:46:00,
2013-08-17 08:51:00,63.6,58.1,30.13,WSW,240,4.0,6.0,82,0.00,,,0.00,WUHU216DAVISVP2,2013-08-17 13:51:00,
2013-08-17 08:56:00,63.8,57.5,30.13,WSW,240,3.0,6.0,80,0.00,,,0.00,WUHU216DAVISVP2,2013-08-17 13:56:00,
2013-08-17 09:01:00,63.6,57.1,30.12,WSW,240,0.0,6.0,79,0.00,,,0.00,WUHU216DAVISVP2,2013-08-17 14:01:00,
2013-08-17 09:06:00,63.6,57.0,30.13,WSW,240,1.0,6.0,79,0.00,,,0.00,WUHU216DAVISVP2,2013-08-17 14:06:00,
2013-08-17 09:11:00,63.5,57.0,30.13,WSW,240,0.0,5.0,79,0.00,,,0.00,WUHU216DAVISVP2,2013-08-17 14:11:00,
2013-08-17 09:16:00,63.9,57.3,30.13,WSW,240,0.0,5.0,79,0.00,,,0.00,WUHU216DAVISVP2,2013-08-17 14:16:00,
2013-08-17 09:21:00,64.3,57.4,30.13,WSW,240,4.0,6.0,78,0.00,,,0.00,WUHU216DAVISVP2,2013-08-17 14:21:00,
2013-08-17 09:26:00,64.8,57.2,30.13,WSW,240,5.0,6.0,76,0.00,,,0.00,WUHU216DAVISVP2,2013-08-17 14:26:00,
2013-08-17 09:31:00,65.1,57.1,30.13,WSW,240,3.0,7.0,75,0.00,,,0.00,WUHU216DAVISVP2,2013-08-17 14:31:00,
2013-08-17 09:36:00,65.3,57.3,30.13,WSW,239,3.0,7.0,75,0.00,,,0.00,WUHU216DAVISVP2,2013-08-17 14:36:00,
2013-08-17 09:41:00,65.4,57.4,30.13,WSW,240,3.0,8.0,75,0.00,,,0.00,WUHU216DAVISVP2,2013-08-17 14:41:00,
2013-08-17 09:46:00,65.4,56.7,30.13,SW,231,5.0,8.0,73,0.00,,,0.00,WUHU216DAVISVP2,2013-08-17 14:46:00,
2013-08-17 09:51:00,65.6,57.6,30.13,SW,231,3.0,8.0,75,0.00,,,0.00,WUHU216DAVISVP2,2013-08-17 14:51:00,
2013-08-17 09:56:00,65.9,56.7,30.13,WSW,248,5.0,9.0,72,0.00,,,0.00,WUHU216DAVISVP2,2013-08-17 14:56:00,
2013-08-17 10:01:00,65.9,57.2,30.13,SW,218,0.0,9.0,73,0.00,,,0.00,WUHU216DAVISVP2,2013-08-17 15:01:00,
2013-08-17 10:06:00,66.4,57.3,30.13,SW,217,4.0,9.0,72,0.00,,,0.00,WUHU216DAVISVP2,2013-08-17 15:06:00,
2013-08-17 10:11:00,66.3,57.5,30.13,SW,231,6.0,9.0,73,0.00,,,0.00,WUHU216DAVISVP2,2013-08-17 15:11:00,
2013-08-17 10:16:00,66.5,57.3,30.13,SW,229,3.0,9.0,72,0.00,,,0.00,WUHU216DAVISVP2,2013-08-17 15:16:00,
2013-08-17 10:21:00,66.8,57.2,30.13,SW,217,6.0,8.0,71,0.00,,,0.00,WUHU216DAVISVP2,2013-08-17 15:21:00,
2013-08-17 10:26:00,66.7,57.2,30.13,SW,218,4.0,8.0,71,0.00,,,0.00,WUHU216DAVISVP2,2013-08-17 15:26:00,
2013-08-17 10:31:00,66.5,56.2,30.13,WSW,247,3.0,9.0,69,0.00,,,0.00,WUHU216DAVISVP2,2013-08-17 15:31:00,
2013-08-17 10:36:00,66.4,56.5,30.13,WSW,246,8.0,9.0,70,0.00,,,0.00,WUHU216DAVISVP2,2013-08-17 15:36:00,
2013-08-17 10:41:00,66.6,56.7,30.13,WSW,239,5.0,9.0,70,0.00,,,0.00,WUHU216DAVISVP2,2013-08-17 15:41:00,
2013-08-17 10:46:00,66.6,56.3,30.13,WSW,251,5.0,9.0,69,0.00,,,0.00,WUHU216DAVISVP2,2013-08-17 15:46:00,
2013-08-17 10:51:00,66.4,56.1,30.13,WSW,255,3.0,9.0,69,0.00,,,0.00,WUHU216DAVISVP2,2013-08-17 15:51:00,
2013-08-17 10:56:00,66.7,56.0,30.13,West,274,4.0,9.0,68,0.00,,,0.00,WUHU216DAVISVP2,2013-08-17 15:56:00,
2013-08-17 11:00:00,67.0,55.9,30.13,NW,305,6.0,11.0,67,0.00,,,0.00,WUHU216DAVISVP2,2013-08-17 16:00:00,
2013-08-17 11:05:00,67.5,56.0,30.13,West,262,6.0,11.0,66,0.00,,,0.00,WUHU216DAVISVP2,2013-08-17 16:05:00,
2013-08-17 11:10:00,67.8,55.7,30.13,West,274,5.0,11.0,65,0.00,,,0.00,WUHU216DAVISVP2,2013-08-17 16:10:00,
2013-08-17 11:15:00,67.9,55.4,30.13,West,272,3.0,11.0,64,0.00,,,0.00,WUHU216DAVISVP2,2013-08-17 16:15:00,
2013-08-17 11:20:00,68.1,55.6,30.13,West,279,0.0,9.0,64,0.00,,,0.00,WUHU216DAVISVP2,2013-08-17 16:20:00,
2013-08-17 11:25:00,67.8,55.4,30.13,WNW,285,1.0,10.0,64,0.00,,,0.00,WUHU216DAVISVP2,2013-08-17 16:25:00,
2013-08-17 11:30:00,67.4,54.6,30.13,West,267,6.0,10.0,63,0.00,,,0.00,WUHU216DAVISVP2,2013-08-17 16:30:00,
2013-08-17 11:35:00,67.4,55.0,30.13,West,267,0.0,10.0,64,0.00,,,0.00,WUHU216DAVISVP2,2013-08-17 16:35:00,
2013-08-17 11:40:00,67.4,55.8,30.13,West,268,1.0,10.0,66,0.00,,,0.00,WUHU216DAVISVP2,2013-08-17 16:40:00,
2013-08-17 11:45:00,67.7,55.3,30.13,WSW,258,2.0,8.0,64,0.00,,,0.00,WUHU216DAVISVP2,2013-08-17 16:45:00,
2013-08-17 11:50:00,67.7,54.4,30.13,SW,233,0.0,7.0,62,0.00,,,0.00,WUHU216DAVISVP2,2013-08-17 16:50:00,
2013-08-17 11:55:00,67.4,54.6,30.12,SW,222,4.0,7.0,63,0.00,,,0.00,WUHU216DAVISVP2,2013-08-17 16:55:00,
2013-08-17 12:00:00,67.6,55.6,30.12,SW,225,2.0,7.0,65,0.00,,,0.00,WUHU216DAVISVP2,2013-08-17 17:00:00,
2013-08-17 12:05:00,67.3,55.3,30.12,WSW,247,1.0,8.0,65,0.00,,,0.00,WUHU216DAVISVP2,2013-08-17 17:05:00,
2013-08-17 12:10:00,67.3,55.3,30.12,WSW,246,0.0,8.0,65,0.00,,,0.00,WUHU216DAVISVP2,2013-08-17 17:10:00,
2013-08-17 12:15:00,68.0,55.9,30.12,SSW,209,7.0,8.0,65,0.00,,,0.00,WUHU216DAVISVP2,2013-08-17 17:15:00,
2013-08-17 12:20:00,68.0,55.1,30.11,WSW,244,0.0,8.0,63,0.00,,,0.00,WUHU216DAVISVP2,2013-08-17 17:20:00,
2013-08-17 12:25:00,68.1,55.6,30.11,WSW,249,8.0,8.0,64,0.00,,,0.00,WUHU216DAVISVP2,2013-08-17 17:25:00,
2013-08-17 12:30:00,67.9,55.4,30.11,WSW,244,4.0,9.0,64,0.00,,,0.00,WUHU216DAVISVP2,2013-08-17 17:30:00,
2013-08-17 12:35:00,67.8,55.4,30.11,SW,225,2.0,9.0,64,0.00,,,0.00,WUHU216DAVISVP2,2013-08-17 17:35:00,
2013-08-17 12:40:00,67.6,55.2,30.11,SW,234,4.0,9.0,64,0.00,,,0.00,WUHU216DAVISVP2,2013-08-17 17:40:00,
2013-08-17 12:45:00,67.7,55.3,30.11,WSW,242,3.0,9.0,64,0.00,,,0.00,WUHU216DAVISVP2,2013-08-17 17:45:00,
2013-08-17 12:50:00,67.8,55.8,30.11,West,279,6.0,8.0,65,0.00,,,0.00,WUHU216DAVISVP2,2013-08-17 17:50:00,
2013-08-17 12:56:00,68.2,55.3,30.11,West,264,7.0,9.0,63,0.00,,,0.00,WUHU216DAVISVP2,2013-08-17 17:56:00,
2013-08-17 13:01:00,68.2,54.9,30.11,SW,226,5.0,9.0,62,0.00,,,0.00,WUHU216DAVISVP2,2013-08-17 18:01:00,
2013-08-17 13:06:00,68.2,54.9,30.11,WSW,239,0.0,9.0,62,0.00,,,0.00,WUHU216DAVISVP2,2013-08-17 18:06:00,
2013-08-17 13:11:00,68.6,55.7,30.10,West,279,4.0,13.0,63,0.00,,,0.00,WUHU216DAVISVP2,2013-08-17 18:11:00,
2013-08-17 13:16:00,69.0,56.5,30.10,WSW,239,5.0,13.0,64,0.00,,,0.00,WUHU216DAVISVP2,2013-08-17 18:16:00,
2013-08-17 13:21:00,69.3,55.9,30.10,WSW,242,3.0,13.0,62,0.00,,,0.00,WUHU216DAVISVP2,2013-08-17 18:21:00,
2013-08-17 13:26:00,69.1,55.7,30.10,SSW,213,7.0,13.0,62,0.00,,,0.00,WUHU216DAVISVP2,2013-08-17 18:26:00,
2013-08-17 13:31:00,69.1,55.7,30.10,SW,225,6.0,10.0,62,0.00,,,0.00,WUHU216DAVISVP2,2013-08-17 18:31:00,
2013-08-17 13:36:00,69.0,56.1,30.10,WSW,247,2.0,10.0,63,0.00,,,0.00,WUHU216DAVISVP2,2013-08-17 18:36:00,
2013-08-17 13:41:00,68.6,55.3,30.10,SW,220,5.0,10.0,62,0.00,,,0.00,WUHU216DAVISVP2,2013-08-17 18:41:00,
2013-08-17 13:46:00,68.9,55.5,30.10,WSW,256,4.0,10.0,62,0.00,,,0.00,WUHU216DAVISVP2,2013-08-17 18:46:00,
2013-08-17 13:51:00,69.7,55.8,30.09,NW,308,1.0,10.0,61,0.00,,,0.00,WUHU216DAVISVP2,2013-08-17 18:51:00,
2013-08-17 13:56:00,70.5,57.0,30.09,West,281,7.0,8.0,62,0.00,,,0.00,WUHU216DAVISVP2,2013-08-17 18:56:00,
2013-08-17 14:01:00,70.3,55.9,30.09,SW,235,2.0,8.0,60,0.00,,,0.00,WUHU216DAVISVP2,2013-08-17 19:01:00,
2013-08-17 14:06:00,70.4,56.5,30.09,WNW,301,7.0,9.0,61,0.00,,,0.00,WUHU216DAVISVP2,2013-08-17 19:06:00,
2013-08-17 14:11:00,70.4,56.5,30.09,West,276,5.0,9.0,61,0.00,,,0.00,WUHU216DAVISVP2,2013-08-17 19:11:00,
2013-08-17 14:16:00,70.3,55.9,30.09,West,276,1.0,9.0,60,0.00,,,0.00,WUHU216DAVISVP2,2013-08-17 19:16:00,
2013-08-17 14:21:00,70.2,56.3,30.09,West,267,4.0,9.0,61,0.00,,,0.00,WUHU216DAVISVP2,2013-08-17 19:21:00,
2013-08-17 14:26:00,70.3,57.7,30.09,West,281,4.0,8.0,64,0.00,,,0.00,WUHU216DAVISVP2,2013-08-17 19:26:00,
2013-08-17 14:31:00,70.8,56.8,30.08,West,272,0.0,8.0,61,0.00,,,0.00,WUHU216DAVISVP2,2013-08-17 19:31:00,
2013-08-17 14:36:00,70.9,56.1,30.08,West,267,0.0,8.0,59,0.00,,,0.00,WUHU216DAVISVP2,2013-08-17 19:36:00,
2013-08-17 14:41:00,71.0,58.0,30.08,WNW,282,5.0,8.0,63,0.00,,,0.00,WUHU216DAVISVP2,2013-08-17 19:41:00,
2013-08-17 14:46:00,70.9,57.9,30.08,WNW,285,3.0,8.0,63,0.00,,,0.00,WUHU216DAVISVP2,2013-08-17 19:46:00,
2013-08-17 14:51:00,71.0,56.1,30.08,WNW,285,0.0,6.0,59,0.00,,,0.00,WUHU216DAVISVP2,2013-08-17 19:51:00,
2013-08-17 14:56:00,71.7,56.8,30.07,NW,316,6.0,6.0,59,0.00,,,0.00,WUHU216DAVISVP2,2013-08-17 19:56:00,
2013-08-17 15:01:00,71.7,57.2,30.07,WNW,290,4.0,8.0,60,0.00,,,0.00,WUHU216DAVISVP2,2013-08-17 20:01:00,
2013-08-17 15:06:00,71.7,57.2,30.07,NW,306,1.0,9.0,60,0.00,,,0.00,WUHU216DAVISVP2,2013-08-17 20:06:00,
2013-08-17 15:11:00,72.0,56.5,30.07,WNW,299,6.0,10.0,58,0.00,,,0.00,WUHU216DAVISVP2,2013-08-17 20:11:00,
2013-08-17 15:16:00,72.4,58.3,30.07,NW,326,7.0,12.0,61,0.00,,,0.00,WUHU216DAVISVP2,2013-08-17 20:16:00,
2013-08-17 15:21:00,72.7,56.2,30.07,WNW,295,5.0,12.0,56,0.00,,,0.00,WUHU216DAVISVP2,2013-08-17 20:21:00,
2013-08-17 15:26:00,73.3,56.8,30.07,West,279,0.0,12.0,56,0.00,,,0.00,WUHU216DAVISVP2,2013-08-17 20:26:00,
2013-08-17 15:30:00,73.9,56.8,30.06,West,279,0.0,12.0,55,0.00,,,0.00,WUHU216DAVISVP2,2013-08-17 20:30:00,
2013-08-17 15:35:00,74.4,57.3,30.06,West,264,7.0,10.0,55,0.00,,,0.00,WUHU216DAVISVP2,2013-08-17 20:35:00,
2013-08-17 15:40:00,74.4,58.4,30.06,West,266,5.0,10.0,57,0.00,,,0.00,WUHU216DAVISVP2,2013-08-17 20:40:00,
2013-08-17 15:45:00,74.1,58.6,30.06,WSW,248,4.0,10.0,58,0.00,,,0.00,WUHU216DAVISVP2,2013-08-17 20:45:00,
2013-08-17 15:50:00,74.0,58.0,30.06,WSW,239,4.0,10.0,57,0.00,,,0.00,WUHU216DAVISVP2,2013-08-17 20:50:00,
2013-08-17 15:55:00,74.1,59.0,30.05,WSW,252,2.0,9.0,59,0.00,,,0.00,WUHU216DAVISVP2,2013-08-17 20:55:00,
2013-08-17 16:00:00,74.2,58.2,30.05,WSW,245,5.0,8.0,57,0.00,,,0.00,WUHU216DAVISVP2,2013-08-17 21:00:00,
2013-08-17 16:05:00,73.9,58.9,30.05,WNW,296,0.0,8.0,59,0.00,,,0.00,WUHU216DAVISVP2,2013-08-17 21:05:00,
2013-08-17 16:10:00,74.0,59.9,30.05,NW,306,0.0,8.0,61,0.00,,,0.00,WUHU216DAVISVP2,2013-08-17 21:10:00,
2013-08-17 16:15:00,74.5,60.4,30.05,NNW,331,5.0,8.0,61,0.00,,,0.00,WUHU216DAVISVP2,2013-08-17 21:15:00,
2013-08-17 16:20:00,74.8,59.7,30.05,NNW,341,4.0,8.0,59,0.00,,,0.00,WUHU216DAVISVP2,2013-08-17 21:20:00,
2013-08-17 16:25:00,75.1,59.0,30.05,WNW,295,6.0,9.0,57,0.00,,,0.00,WUHU216DAVISVP2,2013-08-17 21:25:00,
2013-08-17 16:30:00,75.4,59.8,30.05,NW,309,8.0,9.0,58,0.00,,,0.00,WUHU216DAVISVP2,2013-08-17 21:30:00,
2013-08-17 16:35:00,75.7,58.1,30.05,NW,306,1.0,9.0,54,0.00,,,0.00,WUHU216DAVISVP2,2013-08-17 21:35:00,
2013-08-17 16:40:00,76.1,59.4,30.05,West,278,6.0,9.0,56,0.00,,,0.00,WUHU216DAVISVP2,2013-08-17 21:40:00,
2013-08-17 16:45:00,76.4,59.8,30.04,NW,318,2.0,10.0,56,0.00,,,0.00,WUHU216DAVISVP2,2013-08-17 21:45:00,
2013-08-17 16:50:00,76.6,59.9,30.04,West,273,3.0,10.0,56,0.00,,,0.00,WUHU216DAVISVP2,2013-08-17 21:50:00,
2013-08-17 16:55:00,76.8,60.6,30.05,NW,304,0.0,10.0,57,0.00,,,0.00,WUHU216DAVISVP2,2013-08-17 21:55:00,
2013-08-17 17:00:00,77.1,60.3,30.04,WSW,251,0.0,9.0,56,0.00,,,0.00,WUHU216DAVISVP2,2013-08-17 22:00:00,
2013-08-17 17:05:00,77.0,59.3,30.05,West,274,6.0,9.0,54,0.00,,,0.00,WUHU216DAVISVP2,2013-08-17 22:05:00,
2013-08-17 17:10:00,77.2,59.9,30.04,West,272,2.0,9.0,55,0.00,,,0.00,WUHU216DAVISVP2,2013-08-17 22:10:00,
2013-08-17 17:15:00,77.5,59.7,30.04,West,272,4.0,9.0,54,0.00,,,0.00,WUHU216DAVISVP2,2013-08-17 22:15:00,
2013-08-17 17:20:00,77.7,60.4,30.04,WNW,291,6.0,8.0,55,0.00,,,0.00,WUHU216DAVISVP2,2013-08-17 22:20:00,
2013-08-17 17:25:00,77.6,61.9,30.05,West,281,5.0,11.0,58,0.00,,,0.00,WUHU216DAVISVP2,2013-08-17 22:25:00,
2013-08-17 17:30:00,77.4,61.2,30.04,West,262,6.0,11.0,57,0.00,,,0.00,WUHU216DAVISVP2,2013-08-17 22:30:00,
2013-08-17 17:35:00,76.8,60.6,30.04,West,259,6.0,11.0,57,0.00,,,0.00,WUHU216DAVISVP2,2013-08-17 22:35:00,
2013-08-17 17:40:00,76.5,60.8,30.04,West,264,2.0,10.0,58,0.00,,,0.00,WUHU216DAVISVP2,2013-08-17 22:40:00,
2013-08-17 17:45:00,76.9,62.1,30.04,West,264,2.0,10.0,60,0.00,,,0.00,WUHU216DAVISVP2,2013-08-17 22:45:00,
2013-08-17 17:50:00,77.4,61.7,30.04,West,264,0.0,8.0,58,0.00,,,0.00,WUHU216DAVISVP2,2013-08-17 22:50:00,
2013-08-17 17:55:00,78.1,62.3,30.04,WNW,295,7.0,9.0,58,0.00,,,0.00,WUHU216DAVISVP2,2013-08-17 22:55:00,
2013-08-17 18:00:00,78.1,61.8,30.04,West,273,5.0,11.0,57,0.00,,,0.00,WUHU216DAVISVP2,2013-08-17 23:00:00,
2013-08-17 18:05:00,77.8,61.5,30.04,West,265,4.0,11.0,57,0.00,,,0.00,WUHU216DAVISVP2,2013-08-17 23:05:00,
2013-08-17 18:10:00,77.2,62.0,30.03,West,268,2.0,11.0,59,0.00,,,0.00,WUHU216DAVISVP2,2013-08-17 23:10:00,
2013-08-17 18:15:00,76.8,62.1,30.03,West,268,0.0,11.0,60,0.00,,,0.00,WUHU216DAVISVP2,2013-08-17 23:15:00,
2013-08-17 18:20:00,76.4,62.2,30.03,West,268,0.0,8.0,61,0.00,,,0.00,WUHU216DAVISVP2,2013-08-17 23:20:00,
2013-08-17 18:25:00,76.5,62.3,30.03,WNW,294,6.0,8.0,61,0.00,,,0.00,WUHU216DAVISVP2,2013-08-17 23:25:00,
2013-08-17 18:30:00,76.4,62.1,30.03,WNW,286,4.0,10.0,61,0.00,,,0.00,WUHU216DAVISVP2,2013-08-17 23:30:00,
2013-08-17 18:35:00,76.4,61.7,30.03,West,262,5.0,10.0,60,0.00,,,0.00,WUHU216DAVISVP2,2013-08-17 23:35:00,
2013-08-17 18:40:00,76.6,62.8,30.03,West,263,4.0,10.0,62,0.00,,,0.00,WUHU216DAVISVP2,2013-08-17 23:40:00,
2013-08-17 18:45:00,76.3,61.6,30.03,West,260,1.0,10.0,60,0.00,,,0.00,WUHU216DAVISVP2,2013-08-17 23:45:00,
2013-08-17 18:50:00,76.0,62.3,30.03,West,264,2.0,10.0,62,0.00,,,0.00,WUHU216DAVISVP2,2013-08-17 23:50:00,
2013-08-17 18:55:00,75.9,61.7,30.03,West,259,4.0,8.0,61,0.00,,,0.00,WUHU216DAVISVP2,2013-08-17 23:55:00,
2013-08-17 19:00:00,76.0,62.3,30.03,WNW,291,9.0,13.0,62,0.00,,,0.00,WUHU216DAVISVP2,2013-08-18 00:00:00,
2013-08-17 19:05:00,75.9,62.6,30.03,SW,225,3.0,13.0,63,0.00,,,0.00,WUHU216DAVISVP2,2013-08-18 00:05:00,
2013-08-17 19:10:00,75.7,62.4,30.03,West,260,6.0,13.0,63,0.00,,,0.00,WUHU216DAVISVP2,2013-08-18 00:10:00,
2013-08-17 19:15:00,75.3,62.1,30.03,WSW,258,6.0,13.0,63,0.00,,,0.00,WUHU216DAVISVP2,2013-08-18 00:15:00,
2013-08-17 19:20:00,75.0,61.8,30.03,West,260,5.0,11.0,63,0.00,,,0.00,WUHU216DAVISVP2,2013-08-18 00:20:00,
2013-08-17 19:25:00,74.7,61.9,30.03,West,264,0.0,10.0,64,0.00,,,0.00,WUHU216DAVISVP2,2013-08-18 00:25:00,
2013-08-17 19:30:00,74.3,62.0,30.04,West,264,0.0,9.0,65,0.00,,,0.00,WUHU216DAVISVP2,2013-08-18 00:30:00,
2013-08-17 19:35:00,74.0,61.7,30.04,West,263,5.0,9.0,65,0.00,,,0.00,WUHU216DAVISVP2,2013-08-18 00:35:00,
2013-08-17 19:40:00,73.7,61.4,30.04,West,263,0.0,8.0,65,0.00,,,0.00,WUHU216DAVISVP2,2013-08-18 00:40:00,
2013-08-17 19:45:00,73.2,61.4,30.04,West,263,1.0,8.0,66,0.00,,,0.00,WUHU216DAVISVP2,2013-08-18 00:45:00,
2013-08-17 19:50:00,72.9,61.5,30.04,West,263,4.0,8.0,67,0.00,,,0.00,WUHU216DAVISVP2,2013-08-18 00:50:00,
2013-08-17 19:55:00,72.7,61.7,30.04,West,264,0.0,6.0,68,0.00,,,0.00,WUHU216DAVISVP2,2013-08-18 00:55:00,
2013-08-17 20:00:00,72.4,61.9,30.04,West,264,2.0,6.0,69,0.00,,,0.00,WUHU216DAVISVP2,2013-08-18 01:00:00,
2013-08-17 20:05:00,72.2,61.7,30.04,West,264,0.0,6.0,69,0.00,,,0.00,WUHU216DAVISVP2,2013-08-18 01:05:00,
2013-08-17 20:10:00,71.9,61.3,30.04,West,264,2.0,6.0,69,0.00,,,0.00,WUHU216DAVISVP2,2013-08-18 01:10:00,
2013-08-17 20:15:00,71.6,61.5,30.04,West,264,1.0,5.0,70,0.00,,,0.00,WUHU216DAVISVP2,2013-08-18 01:15:00,
2013-08-17 20:20:00,71.4,61.7,30.04,West,264,0.0,4.0,71,0.00,,,0.00,WUHU216DAVISVP2,2013-08-18 01:20:00,
2013-08-17 20:25:00,71.2,61.5,30.04,West,264,0.0,4.0,71,0.00,,,0.00,WUHU216DAVISVP2,2013-08-18 01:25:00,
2013-08-17 20:30:00,70.8,61.5,30.04,West,264,0.0,4.0,72,0.00,,,0.00,WUHU216DAVISVP2,2013-08-18 01:30:00,
2013-08-17 20:35:00,70.6,61.7,30.04,West,264,0.0,4.0,73,0.00,,,0.00,WUHU216DAVISVP2,2013-08-18 01:35:00,
2013-08-17 20:40:00,70.4,61.5,30.05,West,264,0.0,4.0,73,0.00,,,0.00,WUHU216DAVISVP2,2013-08-18 01:40:00,
2013-08-17 20:45:00,70.2,61.3,30.05,West,264,0.0,5.0,73,0.00,,,0.00,WUHU216DAVISVP2,2013-08-18 01:45:00,
2013-08-17 20:50:00,70.1,61.2,30.05,West,263,1.0,5.0,73,0.00,,,0.00,WUHU216DAVISVP2,2013-08-18 01:50:00,
2013-08-17 20:55:00,70.0,61.1,30.05,West,264,0.0,6.0,73,0.00,,,0.00,WUHU216DAVISVP2,2013-08-18 01:55:00,
2013-08-17 21:00:00,69.7,60.9,30.05,West,264,0.0,6.0,73,0.00,,,0.00,WUHU216DAVISVP2,2013-08-18 02:00:00,
2013-08-17 21:05:00,69.5,61.0,30.05,West,264,0.0,6.0,74,0.00,,,0.00,WUHU216DAVISVP2,2013-08-18 02:05:00,
2013-08-17 21:10:00,69.4,61.3,30.05,West,264,0.0,6.0,75,0.00,,,0.00,WUHU216DAVISVP2,2013-08-18 02:10:00,
2013-08-17 21:15:00,69.3,61.1,30.05,West,264,1.0,4.0,75,0.00,,,0.00,WUHU216DAVISVP2,2013-08-18 02:15:00,
2013-08-17 21:20:00,69.0,60.9,30.06,West,264,0.0,4.0,75,0.00,,,0.00,WUHU216DAVISVP2,2013-08-18 02:20:00,
2013-08-17 21:25:00,68.9,61.2,30.06,West,264,0.0,4.0,76,0.00,,,0.00,WUHU216DAVISVP2,2013-08-18 02:25:00,
2013-08-17 21:30:00,68.7,60.9,30.06,West,264,0.0,3.0,76,0.00,,,0.00,WUHU216DAVISVP2,2013-08-18 02:30:00,
2013-08-17 21:35:00,68.6,60.8,30.06,West,264,0.0,5.0,76,0.00,,,0.00,WUHU216DAVISVP2,2013-08-18 02:35:00,
2013-08-17 21:40:00,68.4,61.0,30.06,West,264,0.0,5.0,77,0.00,,,0.00,WUHU216DAVISVP2,2013-08-18 02:40:00,
2013-08-17 21:45:00,68.3,60.9,30.07,West,264,0.0,5.0,77,0.00,,,0.00,WUHU216DAVISVP2,2013-08-18 02:45:00,
2013-08-17 21:50:00,68.2,60.8,30.07,West,264,0.0,3.0,77,0.00,,,0.00,WUHU216DAVISVP2,2013-08-18 02:50:00,
2013-08-17 21:55:00,68.0,60.6,30.07,West,264,0.0,4.0,77,0.00,,,0.00,WUHU216DAVISVP2,2013-08-18 02:55:00,
2013-08-17 22:00:00,67.7,60.7,30.07,West,264,1.0,4.0,78,0.00,,,0.00,WUHU216DAVISVP2,2013-08-18 03:00:00,
2013-08-17 22:05:00,67.6,60.6,30.07,West,264,0.0,4.0,78,0.00,,,0.00,WUHU216DAVISVP2,2013-08-18 03:05:00,
2013-08-17 22:10:00,67.5,60.8,30.06,West,264,0.0,3.0,79,0.00,,,0.00,WUHU216DAVISVP2,2013-08-18 03:10:00,
2013-08-17 22:15:00,67.3,60.6,30.06,West,264,0.0,4.0,79,0.00,,,0.00,WUHU216DAVISVP2,2013-08-18 03:15:00,
2013-08-17 22:20:00,67.1,60.8,30.06,West,264,0.0,4.0,80,0.00,,,0.00,WUHU216DAVISVP2,2013-08-18 03:20:00,
2013-08-17 22:25:00,66.9,60.6,30.07,West,264,1.0,4.0,80,0.00,,,0.00,WUHU216DAVISVP2,2013-08-18 03:25:00,
2013-08-17 22:30:00,66.8,60.5,30.07,West,264,1.0,4.0,80,0.00,,,0.00,WUHU216DAVISVP2,2013-08-18 03:30:00,
2013-08-17 22:35:00,66.7,60.4,30.07,West,264,0.0,5.0,80,0.00,,,0.00,WUHU216DAVISVP2,2013-08-18 03:35:00,
2013-08-17 22:40:00,66.6,60.6,30.07,West,264,3.0,5.0,81,0.00,,,0.00,WUHU216DAVISVP2,2013-08-18 03:40:00,
2013-08-17 22:45:00,66.5,60.6,30.07,West,264,0.0,5.0,81,0.00,,,0.00,WUHU216DAVISVP2,2013-08-18 03:45:00,
2013-08-17 22:50:00,66.4,60.5,30.07,West,264,2.0,5.0,81,0.00,,,0.00,WUHU216DAVISVP2,2013-08-18 03:50:00,
2013-08-17 22:55:00,66.4,60.5,30.07,West,264,0.0,5.0,81,0.00,,,0.00,WUHU216DAVISVP2,2013-08-18 03:55:00,
2013-08-17 23:00:00,66.3,60.4,30.07,West,264,2.0,5.0,81,0.00,,,0.00,WUHU216DAVISVP2,2013-08-18 04:00:00,
2013-08-17 23:01:00,66.3,60.4,30.07,West,264,0.0,5.0,81,0.00,,,0.00,WUHU216DAVISVP2,2013-08-18 04:01:00,
2013-08-17 23:06:00,66.2,60.6,30.07,West,264,0.0,4.0,82,0.00,,,0.00,WUHU216DAVISVP2,2013-08-18 04:06:00,
2013-08-17 23:11:00,66.2,60.6,30.07,West,264,0.0,4.0,82,0.00,,,0.00,WUHU216DAVISVP2,2013-08-18 04:11:00,
2013-08-17 23:16:00,66.1,60.5,30.07,West,264,1.0,4.0,82,0.00,,,0.00,WUHU216DAVISVP2,2013-08-18 04:16:00,
2013-08-17 23:21:00,66.0,60.4,30.07,West,264,1.0,5.0,82,0.00,,,0.00,WUHU216DAVISVP2,2013-08-18 04:21:00,
2013-08-17 23:26:00,65.9,60.3,30.07,West,264,1.0,5.0,82,0.00,,,0.00,WUHU216DAVISVP2,2013-08-18 04:26:00,
2013-08-17 23:31:00,65.8,60.2,30.07,West,264,0.0,5.0,82,0.00,,,0.00,WUHU216DAVISVP2,2013-08-18 04:31:00,
2013-08-17 23:36:00,65.7,60.1,30.07,West,264,1.0,5.0,82,0.00,,,0.00,WUHU216DAVISVP2,2013-08-18 04:36:00,
2013-08-17 23:41:00,65.6,60.3,30.07,West,264,1.0,5.0,83,0.00,,,0.00,WUHU216DAVISVP2,2013-08-18 04:41:00,
2013-08-17 23:46:00,65.5,60.2,30.07,West,264,0.0,4.0,83,0.00,,,0.00,WUHU216DAVISVP2,2013-08-18 04:46:00,
2013-08-17 23:51:00,65.4,60.1,30.07,West,264,0.0,3.0,83,0.00,,,0.00,WUHU216DAVISVP2,2013-08-18 04:51:00,
2013-08-17 23:56:00,65.3,60.0,30.07,West,264,0.0,3.0,83,0.00,,,0.00,WUHU216DAVISVP2,2013-08-18 04:56:00,